Tracking 21473 objects as of 27-Sep-2020
HD Live streaming from Space Station
objects crossing your sky now

STARLINK-1439

Track STARLINK-1439 now!
10-day predictions
STARLINK-1439 is classified as:


NORAD ID: 45716
Int'l Code: 2020-035BM
Perigee: 401.6 km
Apogee: 412.1 km
Inclination: 53.0 °
Period: 92.6 minutes
Semi major axis: 6777 km
RCS: Unknown
Launch date: June 4, 2020
Source: United States (US)
Launch site: AIR FORCE EASTERN TEST RANGE (AFETR)
aabbcc
Your satellite tracking list
Your tracking list is empty




NASA's NSSDC Master Catalog

Two Line Element Set (TLE):
1 45716U 20035BM  20271.58337963 +.00026132 +00000-0 +37652-3 0  9999
2 45716 053.0004 320.6702 0007705 286.2844 056.7655 15.55837245001763
Source of the keplerian elements: AFSPC